Norfolk, NE

4:39 AM CDT on June 28, 2017 (GMT -0500)
Stefan Memorial

Weather History for KOFK - November, 2011

Change the Weather History Date:

Tuesday, November 8, 2011

  Actual Average Record
Temperature  
Mean Temperature 41 °F 40 °F  
Max Temperature 48 °F 52 °F 81 °F (1999)
Min Temperature 34 °F 29 °F 2 °F (1991)
Degree Days  
Heating Degree Days 24 24  
Month to date heating degree days 184 180  
Since 1 July heating degree days 727 765  
Cooling Degree Days 0 0  
Month to date cooling degree days 0 0  
Year to date cooling degree days 1059 915  
Moisture  
Dew Point 22 °F    
Average Humidity 46    
Maximum Humidity 57    
Minimum Humidity 34    
Precipitation  
Precipitation 0.00 in 0.04 in 0.90 in (1977)
Month to date precipitation 0.08 0.39  
Year to date precipitation 20.23 25.68  
Snow  
Snow 0.00 in 0.10 in - ()
Month to date snowfall T 0.7  
Since 1 July snowfall T 1.5  
Snow Depth 0.00 in    
Sea Level Pressure  
Sea Level Pressure 30.14 in    
Wind  
Wind Speed 7 mph (NNE)    
Max Wind Speed 16 mph    
Max Gust Speed 20 mph    
Visibility 10 miles    
Events      
T = Trace of Precipitation, MM = Missing Value Source: NWS Daily Summary

Daily Weather History Graph

Daily Weather History Graph

Search for Another Location

Airport or City:

Trip Planner

Search our weather history database for the weather conditions in past years. The results will help you decide how hot, cold, wet, or windy it might be!

Date:

Astronomy

Nov. 08, 2011 Rise Set
Actual Time 7:10 AM CST 5:15 PM CST
Civil Twilight 6:41 AM CST 5:45 PM CST
Nautical Twilight 6:07 AM CST 6:18 PM CST
Astronomical Twilight 5:35 AM CST 6:51 PM CST
Moon 3:56 PM CST (11/8) 5:09 AM CST (11/8)
Length of Visible Light 11h 04m
Length of Day
10h 05m
Waxing Gibbous, 96% of the Moon is Illuminated
Nov 8
Waxing Gibbous
Nov 10
Full
Nov 18
Last Quarter
Nov 25
New
Dec 2
First Quarter

Hourly Weather History & Observations

Time (CST) Temp. Windchill Dew Point Humidity Pressure Visibility Wind Dir Wind Speed Gust Speed Precip Events Conditions
12:56 AM 43.0 °F 41.3 °F 28.0 °F 56% 30.13 in 10.0 mi NNE 3.5 mph - N/A   Overcast
1:56 AM 42.1 °F 38.4 °F 24.1 °F 49% 30.12 in 10.0 mi North 5.8 mph - N/A   Overcast
2:56 AM 42.1 °F - 24.1 °F 49% 30.14 in 10.0 mi Calm Calm - N/A   Overcast
3:56 AM 39.9 °F 36.7 °F 24.1 °F 53% 30.13 in 10.0 mi North 4.6 mph - N/A   Overcast
4:56 AM 39.9 °F 35.1 °F 21.9 °F 49% 30.09 in 10.0 mi NE 6.9 mph - N/A   Overcast
5:56 AM 39.9 °F 36.7 °F 21.9 °F 49% 30.12 in 10.0 mi NNE 4.6 mph - N/A   Overcast
6:56 AM 39.9 °F 35.8 °F 21.9 °F 49% 30.14 in 10.0 mi North 5.8 mph - N/A   Overcast
7:56 AM 39.9 °F 35.8 °F 21.9 °F 49% 30.14 in 10.0 mi North 5.8 mph - N/A   Overcast
8:56 AM 42.1 °F 39.2 °F 21.9 °F 45% 30.16 in 10.0 mi NE 4.6 mph - N/A   Overcast
9:56 AM 44.1 °F 38.1 °F 21.9 °F 42% 30.15 in 10.0 mi NE 11.5 mph - N/A   Overcast
10:56 AM 45.0 °F 39.7 °F 24.1 °F 44% 30.16 in 10.0 mi NNE 10.4 mph - N/A   Overcast
11:56 AM 46.0 °F 41.4 °F 23.0 °F 40% 30.15 in 10.0 mi NE 9.2 mph - N/A   Overcast
12:56 PM 46.9 °F - 21.9 °F 37% 30.12 in 10.0 mi NNE 6.9 mph - N/A   Overcast
1:56 PM 48.0 °F - 21.9 °F 36% 30.10 in 10.0 mi North 13.8 mph - N/A   Overcast
2:56 PM 46.9 °F - 19.9 °F 34% 30.10 in 10.0 mi North 13.8 mph - N/A   Overcast
3:56 PM 46.9 °F - 19.9 °F 34% 30.12 in 10.0 mi North 11.5 mph - N/A   Mostly Cloudy
4:56 PM 45.0 °F 39.3 °F 19.9 °F 37% 30.11 in 10.0 mi North 11.5 mph - N/A   Clear
5:56 PM 42.1 °F 37.7 °F 21.9 °F 45% 30.13 in 10.0 mi NNE 6.9 mph - N/A   Clear
6:56 PM 37.9 °F 35.5 °F 21.9 °F 53% 30.16 in 10.0 mi North 3.5 mph - N/A   Clear
7:56 PM 37.0 °F - 23.0 °F 57% 30.16 in 10.0 mi Calm Calm - N/A   Clear
9:56 PM 36.0 °F 31.1 °F 21.9 °F 57% 30.18 in 10.0 mi NNW 5.8 mph - N/A   Clear
10:56 PM 36.0 °F 31.1 °F 21.9 °F 57% 30.18 in 10.0 mi NW 5.8 mph - N/A   Clear